timestamp,wind_dir_avg,wind_spd_avg,wind_spd_max_dir,wind_spd_gust,battery_voltage,lat,long
2022-03-09 00:04:00+00:00,277.0,17.26,279.0,18.98,12.41,47.59359,-54.27349
2022-03-09 00:14:01+00:00,275.0,20.34,276.0,27.2,12.41,47.59359,-54.27349
2022-03-09 00:24:01+00:00,274.0,17.86,265.0,22.36,12.41,47.59359,-54.27349
2022-03-09 00:34:01+00:00,277.0,23.11,281.0,26.21,12.41,47.59359,-54.27349
2022-03-09 00:44:01+00:00,278.0,17.98,274.0,22.69,12.41,47.59359,-54.27349
2022-03-09 00:54:01+00:00,277.0,18.13,273.0,23.95,12.41,47.59359,-54.27349
2022-03-09 01:04:01+00:00,278.0,21.05,276.0,26.98,12.41,47.59359,-54.27349
2022-03-09 01:14:01+00:00,282.0,19.14,289.0,22.96,12.33,47.59359,-54.27349
2022-03-09 01:24:01+00:00,275.0,17.8,280.0,20.81,12.33,47.59359,-54.27349
2022-03-09 01:34:01+00:00,279.0,19.62,277.0,28.65,12.33,47.59359,-54.27349
2022-03-09 01:44:01+00:00,279.0,19.23,282.0,24.12,12.33,47.59359,-54.27349
2022-03-09 01:54:01+00:00,280.0,19.84,277.0,24.08,12.33,47.59359,-54.27349
2022-03-09 02:04:01+00:00,275.0,20.59,275.0,24.92,12.33,47.59359,-54.27349
2022-03-09 02:14:01+00:00,277.0,18.25,282.0,22.03,12.33,47.59359,-54.27349
2022-03-09 02:24:01+00:00,277.0,20.18,279.0,24.64,12.33,47.59359,-54.27349
2022-03-09 02:34:01+00:00,281.0,18.54,288.0,22.3,12.33,47.59359,-54.27349
2022-03-09 02:44:01+00:00,275.0,18.98,275.0,24.02,12.33,47.59359,-54.27349
2022-03-09 02:54:01+00:00,283.0,18.07,293.0,21.59,12.33,47.59359,-54.27349
2022-03-09 03:04:01+00:00,279.0,18.06,283.0,22.55,12.33,47.59359,-54.27349
2022-03-09 03:14:00+00:00,281.0,20.22,286.0,24.38,12.33,47.59359,-54.27349
2022-03-09 03:24:00+00:00,281.0,17.79,285.0,19.4,12.33,47.59359,-54.27349
2022-03-09 03:34:00+00:00,294.0,20.25,286.0,23.79,12.33,47.59359,-54.27349
2022-03-09 03:44:00+00:00,283.0,17.81,286.0,19.2,12.33,47.59359,-54.27349
2022-03-09 03:54:00+00:00,281.0,17.82,267.0,22.09,12.33,47.59359,-54.27349
2022-03-09 04:04:00+00:00,291.0,17.75,296.0,19.73,12.33,47.59359,-54.27349
2022-03-09 04:14:00+00:00,298.0,20.14,288.0,23.3,12.25,47.59359,-54.27349
2022-03-09 04:24:00+00:00,291.0,15.34,302.0,21.81,12.25,47.59359,-54.27349
2022-03-09 04:34:00+00:00,287.0,18.4,286.0,22.71,12.25,47.59359,-54.27349
2022-03-09 04:44:00+00:00,284.0,16.83,290.0,22.84,12.25,47.59359,-54.27349
2022-03-09 04:54:00+00:00,288.0,17.62,283.0,22.2,12.25,47.59359,-54.27349
2022-03-09 05:04:00+00:00,296.0,16.53,299.0,19.45,12.25,47.59359,-54.27349
2022-03-09 05:14:01+00:00,287.0,15.6,285.0,18.27,12.25,47.59359,-54.27349
2022-03-09 05:24:01+00:00,296.0,18.58,296.0,22.84,12.25,47.59359,-54.27349
2022-03-09 05:34:01+00:00,296.0,19.42,297.0,23.73,12.25,47.59359,-54.27349
2022-03-09 05:44:01+00:00,294.0,15.31,295.0,18.74,12.25,47.59359,-54.27349
2022-03-09 05:54:01+00:00,289.0,14.75,286.0,20.58,12.25,47.59359,-54.27349
2022-03-09 06:04:01+00:00,300.0,16.1,301.0,20.71,12.25,47.59359,-54.27349
2022-03-09 06:14:00+00:00,292.0,13.01,292.0,15.81,12.25,47.59359,-54.27349
2022-03-09 06:24:00+00:00,290.0,13.63,297.0,17.12,12.25,47.59359,-54.27349
2022-03-09 06:34:00+00:00,289.0,13.02,288.0,15.4,12.25,47.59359,-54.27349
2022-03-09 06:44:00+00:00,295.0,13.27,300.0,18.2,12.25,47.59359,-54.27349
2022-03-09 06:54:00+00:00,282.0,13.27,282.0,16.14,12.25,47.59359,-54.27349
2022-03-09 07:04:00+00:00,291.0,12.72,289.0,15.82,12.25,47.59359,-54.27349
2022-03-09 07:14:01+00:00,295.0,11.52,303.0,13.8,12.17,47.59359,-54.27349
2022-03-09 07:24:01+00:00,300.0,14.81,297.0,18.76,12.17,47.59359,-54.27349
2022-03-09 07:34:01+00:00,302.0,14.26,306.0,18.42,12.17,47.59359,-54.27349
2022-03-09 07:44:01+00:00,297.0,14.89,300.0,17.66,12.17,47.59359,-54.27349
2022-03-09 07:54:01+00:00,289.0,15.08,290.0,21.95,12.17,47.59359,-54.27349
2022-03-09 08:04:01+00:00,285.0,15.42,283.0,22.2,12.17,47.59359,-54.27349
2022-03-09 08:14:01+00:00,292.0,12.26,299.0,14.47,12.17,47.59359,-54.27349
2022-03-09 08:24:01+00:00,291.0,12.53,281.0,15.53,12.17,47.59359,-54.27349
2022-03-09 08:34:01+00:00,298.0,12.46,309.0,15.08,12.17,47.59359,-54.27349
2022-03-09 08:44:01+00:00,295.0,12.25,298.0,13.81,12.17,47.59359,-54.27349
2022-03-09 08:54:01+00:00,296.0,11.34,292.0,14.66,12.17,47.59359,-54.27349
2022-03-09 09:04:01+00:00,293.0,13.18,294.0,15.24,12.17,47.59359,-54.27349
2022-03-09 09:14:01+00:00,300.0,12.01,300.0,16.17,12.17,47.59359,-54.27349
2022-03-09 09:24:01+00:00,287.0,12.75,288.0,15.84,12.17,47.59359,-54.27349
2022-03-09 09:34:01+00:00,289.0,13.43,291.0,16.26,12.17,47.59359,-54.27349
2022-03-09 09:44:01+00:00,291.0,13.86,292.0,18.35,12.17,47.59359,-54.27349
2022-03-09 09:54:01+00:00,297.0,12.46,305.0,15.37,12.17,47.59359,-54.27349
2022-03-09 10:04:01+00:00,300.0,13.5,298.0,16.46,12.17,47.59359,-54.27349
2022-03-09 10:14:00+00:00,299.0,12.8,299.0,15.99,12.17,47.59359,-54.27349
2022-03-09 10:24:00+00:00,308.0,16.2,313.0,18.71,12.17,47.59359,-54.27349
2022-03-09 10:34:00+00:00,302.0,13.79,304.0,15.98,12.17,47.59359,-54.27349
2022-03-09 10:44:00+00:00,303.0,11.64,307.0,14.73,12.17,47.59359,-54.27349
2022-03-09 10:54:00+00:00,307.0,15.68,311.0,18.72,12.17,47.59359,-54.27349
2022-03-09 11:04:00+00:00,305.0,13.52,301.0,16.31,12.17,47.59359,-54.27349
2022-03-09 11:14:01+00:00,308.0,15.77,320.0,19.84,13.84,47.59359,-54.27349
2022-03-09 11:24:01+00:00,299.0,15.43,283.0,21.39,13.84,47.59359,-54.27349
2022-03-09 11:34:01+00:00,303.0,15.27,317.0,19.56,13.84,47.59359,-54.27349
2022-03-09 11:44:01+00:00,299.0,14.39,303.0,16.39,13.84,47.59359,-54.27349
2022-03-09 11:54:01+00:00,302.0,15.12,312.0,17.65,13.84,47.59359,-54.27349
2022-03-09 12:04:01+00:00,305.0,15.12,320.0,18.74,13.84,47.59359,-54.27349
2022-03-09 12:14:00+00:00,309.0,14.49,308.0,17.84,13.84,47.59359,-54.27349
2022-03-09 12:24:00+00:00,303.0,14.96,310.0,17.32,13.84,47.59359,-54.27349
2022-03-09 12:34:00+00:00,305.0,15.29,308.0,17.02,13.84,47.59359,-54.27349
2022-03-09 12:44:00+00:00,307.0,14.44,308.0,16.92,13.84,47.59359,-54.27349
2022-03-09 12:54:00+00:00,298.0,13.4,290.0,21.78,13.84,47.59359,-54.27349
2022-03-09 13:04:00+00:00,303.0,15.39,307.0,18.07,13.84,47.59359,-54.27349
2022-03-09 13:14:01+00:00,295.0,13.89,287.0,20.73,13.76,47.59359,-54.27349
2022-03-09 13:24:01+00:00,300.0,17.22,293.0,24.74,13.76,47.59359,-54.27349
2022-03-09 13:34:01+00:00,300.0,17.52,295.0,22.72,13.76,47.59359,-54.27349
2022-03-09 13:44:01+00:00,296.0,17.53,294.0,22.77,13.76,47.59359,-54.27349
2022-03-09 13:54:01+00:00,305.0,14.68,313.0,18.01,13.76,47.59359,-54.27349
2022-03-09 14:04:01+00:00,305.0,12.98,311.0,16.26,13.76,47.59359,-54.27349
2022-03-09 14:14:01+00:00,301.0,11.67,302.0,14.88,13.6,47.59359,-54.27349
2022-03-09 14:24:01+00:00,296.0,10.9,291.0,13.38,13.6,47.59359,-54.27349
2022-03-09 14:34:01+00:00,302.0,11.98,301.0,13.78,13.6,47.59359,-54.27349
2022-03-09 14:44:01+00:00,305.0,13.37,307.0,16.22,13.6,47.59359,-54.27349
2022-03-09 14:54:01+00:00,303.0,11.31,308.0,14.07,13.6,47.59359,-54.27349
2022-03-09 15:04:01+00:00,301.0,11.92,303.0,14.49,13.6,47.59359,-54.27349
2022-03-09 15:14:00+00:00,302.0,14.05,288.0,17.3,13.68,47.59359,-54.27349
2022-03-09 15:24:00+00:00,301.0,10.68,299.0,12.27,13.68,47.59359,-54.27349
2022-03-09 15:34:00+00:00,299.0,11.79,303.0,14.94,13.68,47.59359,-54.27349
2022-03-09 15:44:00+00:00,298.0,11.59,297.0,14.85,13.68,47.59359,-54.27349
2022-03-09 15:54:00+00:00,298.0,12.09,292.0,14.05,13.68,47.59359,-54.27349
2022-03-09 16:04:00+00:00,295.0,11.01,299.0,12.39,13.68,47.59359,-54.27349
2022-03-09 16:14:01+00:00,303.0,10.07,305.0,11.79,13.76,47.59359,-54.27349
2022-03-09 16:24:01+00:00,296.0,12.25,288.0,14.91,13.76,47.59359,-54.27349
2022-03-09 16:34:01+00:00,302.0,12.18,307.0,14.11,13.76,47.59359,-54.27349
2022-03-09 16:44:01+00:00,311.0,13.26,314.0,15.5,13.76,47.59359,-54.27349
2022-03-09 16:54:01+00:00,307.0,13.27,307.0,16.35,13.76,47.59359,-54.27349
2022-03-09 17:04:01+00:00,294.0,11.55,299.0,13.57,13.76,47.59359,-54.27349
2022-03-09 17:14:01+00:00,304.0,11.58,304.0,13.73,14.48,47.59359,-54.27349
2022-03-09 17:24:01+00:00,298.0,10.09,305.0,11.55,14.48,47.59359,-54.27349
2022-03-09 17:34:01+00:00,298.0,11.14,306.0,13.1,14.48,47.59359,-54.27349
2022-03-09 17:44:01+00:00,294.0,10.06,292.0,11.36,14.48,47.59359,-54.27349
2022-03-09 17:54:01+00:00,308.0,10.97,314.0,12.04,14.48,47.59359,-54.27349
2022-03-09 18:04:01+00:00,291.0,12.44,290.0,15.85,14.48,47.59359,-54.27349
2022-03-09 18:14:00+00:00,290.0,10.92,300.0,12.3,14.32,47.59359,-54.27349
2022-03-09 18:24:00+00:00,290.0,10.95,286.0,12.48,14.32,47.59359,-54.27349
2022-03-09 18:34:00+00:00,286.0,10.66,284.0,12.98,14.32,47.59359,-54.27349
2022-03-09 18:44:00+00:00,279.0,10.69,287.0,11.72,14.32,47.59359,-54.27349
2022-03-09 18:54:00+00:00,280.0,11.3,283.0,17.01,14.32,47.59359,-54.27349
2022-03-09 19:04:00+00:00,289.0,10.71,282.0,12.55,14.32,47.59359,-54.27349
2022-03-09 19:14:01+00:00,298.0,10.32,301.0,12.1,14.16,47.59359,-54.27349
2022-03-09 19:24:01+00:00,288.0,10.67,292.0,11.74,14.16,47.59359,-54.27349
2022-03-09 19:34:01+00:00,282.0,9.55,283.0,10.75,14.16,47.59359,-54.27349
2022-03-09 19:44:01+00:00,290.0,9.78,289.0,10.96,14.16,47.59359,-54.27349
2022-03-09 19:54:01+00:00,290.0,10.81,296.0,11.94,14.16,47.59359,-54.27349
2022-03-09 20:04:01+00:00,289.0,10.22,297.0,12.13,14.16,47.59359,-54.27349
2022-03-09 20:14:00+00:00,294.0,10.94,293.0,12.05,13.68,47.59359,-54.27349
2022-03-09 20:24:00+00:00,292.0,10.41,297.0,11.98,13.68,47.59359,-54.27349
2022-03-09 20:34:00+00:00,288.0,9.14,286.0,10.73,13.68,47.59359,-54.27349
2022-03-09 20:44:00+00:00,287.0,8.76,290.0,10.76,13.68,47.59359,-54.27349
2022-03-09 20:54:00+00:00,284.0,8.92,284.0,10.9,13.68,47.59359,-54.27349
2022-03-09 21:04:00+00:00,285.0,8.81,284.0,10.04,13.68,47.59359,-54.27349
2022-03-09 21:14:01+00:00,281.0,9.2,283.0,10.83,13.44,47.59359,-54.27349
2022-03-09 21:24:01+00:00,275.0,8.45,271.0,10.35,13.44,47.59359,-54.27349
2022-03-09 21:34:01+00:00,264.0,9.18,264.0,9.91,13.44,47.59359,-54.27349
2022-03-09 21:44:01+00:00,261.0,8.12,261.0,9.41,13.44,47.59359,-54.27349
2022-03-09 21:54:01+00:00,270.0,8.19,269.0,10.24,13.44,47.59359,-54.27349
2022-03-09 22:04:01+00:00,270.0,9.5,271.0,11.38,13.44,47.59359,-54.27349
2022-03-09 22:14:01+00:00,267.0,9.35,271.0,10.42,12.65,47.59359,-54.27349
2022-03-09 22:24:01+00:00,278.0,7.92,282.0,9.37,12.65,47.59359,-54.27349
2022-03-09 22:34:01+00:00,274.0,7.6,275.0,8.92,12.65,47.59359,-54.27349
2022-03-09 22:44:01+00:00,270.0,7.81,268.0,9.62,12.65,47.59359,-54.27349
2022-03-09 22:54:01+00:00,274.0,9.01,271.0,9.95,12.65,47.59359,-54.27349
2022-03-09 23:04:01+00:00,277.0,9.99,283.0,11.25,12.65,47.59359,-54.27349
2022-03-09 23:14:01+00:00,276.0,8.66,281.0,9.97,12.41,47.59359,-54.27349
2022-03-09 23:24:01+00:00,270.0,9.01,266.0,10.17,12.41,47.59359,-54.27349
2022-03-09 23:34:01+00:00,279.0,9.61,282.0,11.14,12.41,47.59359,-54.27349
2022-03-09 23:44:01+00:00,285.0,8.46,284.0,10.14,12.41,47.59359,-54.27349
2022-03-09 23:54:01+00:00,296.0,9.42,297.0,12.92,12.41,47.59359,-54.27349
